Time,TemperatureF,DewpointF,PressureIn,WindDirection,WindDirectionDegrees,WindSpeedMPH,WindSpeedGustMPH,Humidity,HourlyPrecipIn,Conditions,Clouds,dailyrainin,SoftwareType,DateUTC
2013-09-25 00:00:00,46.5,41.6,29.61,West,270,0.0,0.0,83,0.00,,,-99.99,VWS V12.07,2013-09-25 05:00:00,
2013-09-25 00:05:00,46.2,41.3,29.61,West,270,0.0,0.0,83,0.00,,,-99.99,VWS V12.07,2013-09-25 05:05:00,
2013-09-25 00:10:00,46.0,41.1,29.61,West,270,0.0,0.0,83,0.00,,,-99.99,VWS V12.07,2013-09-25 05:10:00,
2013-09-25 00:15:00,46.0,41.1,29.61,West,270,0.0,0.0,83,0.00,,,-99.99,VWS V12.07,2013-09-25 05:15:00,
2013-09-25 00:20:00,46.0,41.1,29.61,West,270,0.0,0.0,83,0.00,,,-99.99,VWS V12.07,2013-09-25 05:20:00,
2013-09-25 00:25:00,45.6,40.7,29.61,West,270,0.0,0.0,83,0.00,,,-99.99,VWS V12.07,2013-09-25 05:25:00,
2013-09-25 00:30:00,45.6,41.0,29.62,West,270,0.0,0.0,84,0.00,,,-99.99,VWS V12.07,2013-09-25 05:30:00,
2013-09-25 00:35:00,45.3,40.8,29.62,West,270,0.0,0.0,84,0.00,,,-99.99,VWS V12.07,2013-09-25 05:35:00,
2013-09-25 00:40:00,45.3,40.8,29.62,West,270,0.0,0.0,84,0.00,,,-99.99,VWS V12.07,2013-09-25 05:40:00,
2013-09-25 00:45:00,45.1,40.6,29.61,West,270,0.0,0.0,84,0.00,,,-99.99,VWS V12.07,2013-09-25 05:45:00,
2013-09-25 00:50:00,45.1,40.6,29.61,West,270,0.0,0.0,84,0.00,,,-99.99,VWS V12.07,2013-09-25 05:50:00,
2013-09-25 00:55:00,45.1,40.6,29.61,West,270,0.0,0.0,84,0.00,,,-99.99,VWS V12.07,2013-09-25 05:55:00,
2013-09-25 01:00:00,45.1,40.6,29.61,West,270,0.0,0.0,84,0.00,,,-99.99,VWS V12.07,2013-09-25 06:00:00,
2013-09-25 01:05:00,45.1,40.6,29.61,West,270,0.0,0.0,84,0.00,,,-99.99,VWS V12.07,2013-09-25 06:05:00,
2013-09-25 01:10:00,44.9,40.4,29.61,West,270,0.0,0.0,84,0.00,,,-99.99,VWS V12.07,2013-09-25 06:10:00,
2013-09-25 01:15:00,44.9,40.4,29.61,West,270,0.0,0.0,84,0.00,,,-99.99,VWS V12.07,2013-09-25 06:15:00,
2013-09-25 01:20:00,44.9,40.7,29.62,West,270,0.0,0.0,85,0.00,,,-99.99,VWS V12.07,2013-09-25 06:20:00,
2013-09-25 01:25:00,44.9,40.7,29.62,West,270,0.0,0.0,85,0.00,,,-99.99,VWS V12.07,2013-09-25 06:25:00,
2013-09-25 01:30:00,44.9,40.7,29.62,West,270,0.0,0.0,85,0.00,,,-99.99,VWS V12.07,2013-09-25 06:30:00,
2013-09-25 01:35:00,44.7,40.5,29.62,West,270,0.0,0.0,85,0.00,,,-99.99,VWS V12.07,2013-09-25 06:35:00,
2013-09-25 01:40:00,44.6,40.4,29.62,West,270,0.0,0.0,85,0.00,,,-99.99,VWS V12.07,2013-09-25 06:40:00,
2013-09-25 01:45:00,44.4,40.2,29.62,West,270,0.0,0.0,85,0.00,,,-99.99,VWS V12.07,2013-09-25 06:45:00,
2013-09-25 01:50:00,44.4,40.2,29.62,West,270,0.0,0.0,85,0.00,,,-99.99,VWS V12.07,2013-09-25 06:50:00,
2013-09-25 01:55:00,44.2,40.0,29.62,West,270,0.0,0.0,85,0.00,,,-99.99,VWS V12.07,2013-09-25 06:55:00,
2013-09-25 02:00:00,44.2,40.0,29.61,West,270,0.0,0.0,85,0.00,,,-99.99,VWS V12.07,2013-09-25 07:00:00,
2013-09-25 02:05:00,43.8,39.6,29.62,West,270,0.0,0.0,85,0.00,,,-99.99,VWS V12.07,2013-09-25 07:05:00,
2013-09-25 02:10:00,43.8,39.6,29.62,West,270,0.0,0.0,85,0.00,,,-99.99,VWS V12.07,2013-09-25 07:10:00,
2013-09-25 02:15:00,43.7,39.5,29.62,West,270,0.0,0.0,85,0.00,,,-99.99,VWS V12.07,2013-09-25 07:15:00,
2013-09-25 02:20:00,43.7,39.5,29.62,West,270,0.0,0.0,85,0.00,,,-99.99,VWS V12.07,2013-09-25 07:20:00,
2013-09-25 02:25:00,43.5,39.3,29.61,West,270,0.0,0.0,85,0.00,,,-99.99,VWS V12.07,2013-09-25 07:25:00,
2013-09-25 02:30:00,43.5,39.3,29.61,West,270,0.0,0.0,85,0.00,,,-99.99,VWS V12.07,2013-09-25 07:30:00,
2013-09-25 02:35:00,43.3,39.1,29.61,West,270,0.0,0.0,85,0.00,,,-99.99,VWS V12.07,2013-09-25 07:35:00,
2013-09-25 02:40:00,43.1,38.9,29.61,West,270,0.0,0.0,85,0.00,,,-99.99,VWS V12.07,2013-09-25 07:40:00,
2013-09-25 02:45:00,42.9,39.0,29.61,West,270,0.0,0.0,86,0.00,,,-99.99,VWS V12.07,2013-09-25 07:45:00,
2013-09-25 02:50:00,42.9,38.7,29.61,West,270,0.0,0.0,85,0.00,,,-99.99,VWS V12.07,2013-09-25 07:50:00,
2013-09-25 02:55:00,42.9,38.7,29.61,West,270,0.0,0.0,85,0.00,,,-99.99,VWS V12.07,2013-09-25 07:55:00,
2013-09-25 03:00:00,42.6,38.4,29.61,West,270,0.0,0.0,85,0.00,,,-99.99,VWS V12.07,2013-09-25 08:00:00,
2013-09-25 03:05:00,42.6,38.7,29.62,West,270,0.0,0.0,86,0.00,,,-99.99,VWS V12.07,2013-09-25 08:05:00,
2013-09-25 03:10:00,42.4,38.5,29.62,West,270,0.0,0.0,86,0.00,,,-99.99,VWS V12.07,2013-09-25 08:10:00,
2013-09-25 03:15:00,42.2,38.3,29.62,West,270,0.0,0.0,86,0.00,,,-99.99,VWS V12.07,2013-09-25 08:15:00,
2013-09-25 03:20:00,42.0,38.1,29.62,West,270,0.0,0.0,86,0.00,,,-99.99,VWS V12.07,2013-09-25 08:20:00,
2013-09-25 03:25:00,41.9,38.0,29.62,West,270,0.0,0.0,86,0.00,,,-99.99,VWS V12.07,2013-09-25 08:25:00,
2013-09-25 03:30:00,41.7,37.8,29.62,West,270,0.0,0.0,86,0.00,,,-99.99,VWS V12.07,2013-09-25 08:30:00,
2013-09-25 03:35:00,41.7,37.8,29.62,West,270,0.0,0.0,86,0.00,,,-99.99,VWS V12.07,2013-09-25 08:35:00,
2013-09-25 03:40:00,41.5,37.6,29.62,West,270,0.0,0.0,86,0.00,,,-99.99,VWS V12.07,2013-09-25 08:40:00,
2013-09-25 03:45:00,41.5,37.6,29.62,West,270,0.0,0.0,86,0.00,,,-99.99,VWS V12.07,2013-09-25 08:45:00,
2013-09-25 03:50:00,41.3,37.4,29.62,West,270,0.0,0.0,86,0.00,,,-99.99,VWS V12.07,2013-09-25 08:50:00,
2013-09-25 03:55:00,41.3,37.4,29.62,West,270,0.0,0.0,86,0.00,,,-99.99,VWS V12.07,2013-09-25 08:55:00,
2013-09-25 04:00:00,41.3,37.4,29.62,West,270,0.0,0.0,86,0.00,,,-99.99,VWS V12.07,2013-09-25 09:00:00,
2013-09-25 04:05:00,41.3,37.4,29.63,West,270,0.0,0.0,86,0.00,,,-99.99,VWS V12.07,2013-09-25 09:05:00,
2013-09-25 04:10:00,41.3,37.4,29.62,West,270,0.0,0.0,86,0.00,,,-99.99,VWS V12.07,2013-09-25 09:10:00,
2013-09-25 04:15:00,41.3,37.4,29.63,West,270,0.0,0.0,86,0.00,,,-99.99,VWS V12.07,2013-09-25 09:15:00,
2013-09-25 04:20:00,41.3,37.4,29.62,West,270,0.0,0.0,86,0.00,,,-99.99,VWS V12.07,2013-09-25 09:20:00,
2013-09-25 04:25:00,41.3,37.4,29.63,West,270,0.0,0.0,86,0.00,,,-99.99,VWS V12.07,2013-09-25 09:25:00,
2013-09-25 04:30:00,41.3,37.4,29.63,West,270,0.0,0.0,86,0.00,,,-99.99,VWS V12.07,2013-09-25 09:30:00,
2013-09-25 04:35:00,41.3,37.4,29.63,West,270,0.0,0.0,86,0.00,,,-99.99,VWS V12.07,2013-09-25 09:35:00,
2013-09-25 04:40:00,41.3,37.4,29.63,West,270,0.0,0.0,86,0.00,,,-99.99,VWS V12.07,2013-09-25 09:40:00,
2013-09-25 04:45:00,41.3,37.4,29.63,West,270,0.0,0.0,86,0.00,,,-99.99,VWS V12.07,2013-09-25 09:45:00,
2013-09-25 04:50:00,41.3,37.4,29.63,West,270,0.0,0.0,86,0.00,,,-99.99,VWS V12.07,2013-09-25 09:50:00,
2013-09-25 04:55:00,41.1,37.2,29.63,West,270,0.0,0.0,86,0.00,,,-99.99,VWS V12.07,2013-09-25 09:55:00,
2013-09-25 05:00:00,41.1,37.5,29.63,West,270,0.0,0.0,87,0.00,,,-99.99,VWS V12.07,2013-09-25 10:00:00,
2013-09-25 05:05:00,41.1,37.5,29.63,West,270,0.0,0.0,87,0.00,,,-99.99,VWS V12.07,2013-09-25 10:05:00,
2013-09-25 05:10:00,41.1,37.5,29.63,West,270,0.0,0.0,87,0.00,,,-99.99,VWS V12.07,2013-09-25 10:10:00,
2013-09-25 05:15:00,41.1,37.5,29.63,West,270,0.0,0.0,87,0.00,,,-99.99,VWS V12.07,2013-09-25 10:15:00,
2013-09-25 05:20:00,41.1,37.5,29.63,West,270,0.0,0.0,87,0.00,,,-99.99,VWS V12.07,2013-09-25 10:20:00,
2013-09-25 05:25:00,40.8,37.2,29.63,West,270,0.0,0.0,87,0.00,,,-99.99,VWS V12.07,2013-09-25 10:25:00,
2013-09-25 05:30:00,40.8,37.2,29.63,West,270,0.0,0.0,87,0.00,,,-99.99,VWS V12.07,2013-09-25 10:30:00,
2013-09-25 05:35:00,40.6,37.0,29.63,West,270,0.0,0.0,87,0.00,,,-99.99,VWS V12.07,2013-09-25 10:35:00,
2013-09-25 05:40:00,40.6,37.0,29.63,West,270,0.0,0.0,87,0.00,,,-99.99,VWS V12.07,2013-09-25 10:40:00,
2013-09-25 05:45:00,40.4,36.8,29.63,West,270,0.0,0.0,87,0.00,,,-99.99,VWS V12.07,2013-09-25 10:45:00,
2013-09-25 05:50:00,40.2,36.7,29.63,West,270,0.0,0.0,87,0.00,,,-99.99,VWS V12.07,2013-09-25 10:50:00,
2013-09-25 05:55:00,40.1,36.5,29.63,West,270,0.0,0.0,87,0.00,,,-99.99,VWS V12.07,2013-09-25 10:55:00,
2013-09-25 06:00:00,40.1,36.5,29.63,West,270,0.0,0.0,87,0.00,,,-99.99,VWS V12.07,2013-09-25 11:00:00,
2013-09-25 06:05:00,39.9,36.3,29.63,West,270,0.0,0.0,87,0.00,,,-99.99,VWS V12.07,2013-09-25 11:05:00,
2013-09-25 06:10:00,39.9,36.3,29.63,West,270,0.0,0.0,87,0.00,,,-99.99,VWS V12.07,2013-09-25 11:10:00,
2013-09-25 06:15:00,39.9,36.3,29.63,West,270,0.0,0.0,87,0.00,,,-99.99,VWS V12.07,2013-09-25 11:15:00,
2013-09-25 06:20:00,39.7,36.2,29.64,West,270,0.0,0.0,87,0.00,,,-99.99,VWS V12.07,2013-09-25 11:20:00,
2013-09-25 06:25:00,39.7,36.2,29.63,West,270,0.0,0.0,87,0.00,,,-99.99,VWS V12.07,2013-09-25 11:25:00,
2013-09-25 06:30:00,39.5,36.0,29.63,West,270,0.0,0.0,87,0.00,,,-99.99,VWS V12.07,2013-09-25 11:30:00,
2013-09-25 06:35:00,39.3,35.8,29.63,West,270,0.0,0.0,87,0.00,,,-99.99,VWS V12.07,2013-09-25 11:35:00,
2013-09-25 06:40:00,39.3,35.8,29.63,West,270,0.0,0.0,87,0.00,,,-99.99,VWS V12.07,2013-09-25 11:40:00,
2013-09-25 06:45:00,39.3,35.8,29.63,West,270,0.0,0.0,87,0.00,,,-99.99,VWS V12.07,2013-09-25 11:45:00,
2013-09-25 06:50:00,39.0,35.5,29.64,West,270,0.0,0.0,87,0.00,,,-99.99,VWS V12.07,2013-09-25 11:50:00,
2013-09-25 06:55:00,39.0,35.5,29.63,West,270,0.0,0.0,87,0.00,,,-99.99,VWS V12.07,2013-09-25 11:55:00,
2013-09-25 07:00:00,39.0,35.5,29.64,West,270,0.0,0.0,87,0.00,,,-99.99,VWS V12.07,2013-09-25 12:00:00,
2013-09-25 07:05:00,39.0,35.5,29.64,West,270,0.0,0.0,87,0.00,,,-99.99,VWS V12.07,2013-09-25 12:05:00,
2013-09-25 07:10:00,38.8,35.3,29.64,West,270,0.0,0.0,87,0.00,,,-99.99,VWS V12.07,2013-09-25 12:10:00,
2013-09-25 07:15:00,38.8,35.3,29.64,West,270,0.0,0.0,87,0.00,,,-99.99,VWS V12.07,2013-09-25 12:15:00,
2013-09-25 07:20:00,38.8,35.3,29.64,West,270,0.0,0.0,87,0.00,,,-99.99,VWS V12.07,2013-09-25 12:20:00,
2013-09-25 07:25:00,38.8,35.3,29.64,West,270,0.0,0.0,87,0.00,,,-99.99,VWS V12.07,2013-09-25 12:25:00,
2013-09-25 07:30:00,38.8,35.3,29.64,West,270,0.0,0.0,87,0.00,,,-99.99,VWS V12.07,2013-09-25 12:30:00,
2013-09-25 07:35:00,38.8,35.3,29.64,West,270,0.0,0.0,87,0.00,,,-99.99,VWS V12.07,2013-09-25 12:35:00,
2013-09-25 07:40:00,38.8,35.3,29.64,West,270,0.0,0.0,87,0.00,,,-99.99,VWS V12.07,2013-09-25 12:40:00,
2013-09-25 07:45:00,38.8,35.3,29.64,West,270,0.0,0.0,87,0.00,,,-99.99,VWS V12.07,2013-09-25 12:45:00,
2013-09-25 07:50:00,39.0,35.5,29.64,West,270,0.0,0.0,87,0.00,,,-99.99,VWS V12.07,2013-09-25 12:50:00,
2013-09-25 07:55:00,39.0,35.5,29.64,West,270,0.0,0.0,87,0.00,,,-99.99,VWS V12.07,2013-09-25 12:55:00,
2013-09-25 08:00:00,39.3,36.0,29.64,West,270,0.0,0.0,88,0.00,,,-99.99,VWS V12.07,2013-09-25 13:00:00,
2013-09-25 08:05:00,39.5,36.2,29.64,West,270,0.0,0.0,88,0.00,,,-99.99,VWS V12.07,2013-09-25 13:05:00,
2013-09-25 08:10:00,39.9,36.6,29.64,West,270,0.0,0.0,88,0.00,,,-99.99,VWS V12.07,2013-09-25 13:10:00,
2013-09-25 08:15:00,40.1,36.8,29.64,West,270,0.0,0.0,88,0.00,,,-99.99,VWS V12.07,2013-09-25 13:15:00,
2013-09-25 08:20:00,40.6,37.3,29.64,West,270,0.0,0.0,88,0.00,,,-99.99,VWS V12.07,2013-09-25 13:20:00,
2013-09-25 08:25:00,41.0,37.7,29.64,West,270,0.0,0.0,88,0.00,,,-99.99,VWS V12.07,2013-09-25 13:25:00,
2013-09-25 08:30:00,41.3,38.0,29.64,West,270,0.0,0.0,88,0.00,,,-99.99,VWS V12.07,2013-09-25 13:30:00,
2013-09-25 08:35:00,42.0,39.0,29.64,West,270,0.0,0.0,89,0.00,,,-99.99,VWS V12.07,2013-09-25 13:35:00,
2013-09-25 08:40:00,42.6,39.6,29.64,West,270,0.0,0.0,89,0.00,,,-99.99,VWS V12.07,2013-09-25 13:40:00,
2013-09-25 08:45:00,42.9,39.9,29.64,West,270,0.0,0.0,89,0.00,,,-99.99,VWS V12.07,2013-09-25 13:45:00,
2013-09-25 08:50:00,44.0,41.0,29.64,West,270,0.0,0.0,89,0.00,,,-99.99,VWS V12.07,2013-09-25 13:50:00,
2013-09-25 08:55:00,44.7,41.7,29.64,West,270,0.0,0.0,89,0.00,,,-99.99,VWS V12.07,2013-09-25 13:55:00,
2013-09-25 09:00:00,45.3,42.3,29.64,West,270,0.0,0.0,89,0.00,,,-99.99,VWS V12.07,2013-09-25 14:00:00,
2013-09-25 09:05:00,46.5,43.7,29.64,West,270,0.0,0.0,90,0.00,,,-99.99,VWS V12.07,2013-09-25 14:05:00,
2013-09-25 09:10:00,47.1,44.3,29.64,West,270,0.0,0.0,90,0.00,,,-99.99,VWS V12.07,2013-09-25 14:10:00,
2013-09-25 09:15:00,48.0,45.2,29.64,West,270,0.0,0.0,90,0.00,,,-99.99,VWS V12.07,2013-09-25 14:15:00,
2013-09-25 09:20:00,48.9,46.1,29.64,West,270,0.0,0.0,90,0.00,,,-99.99,VWS V12.07,2013-09-25 14:20:00,
2013-09-25 09:25:00,49.2,46.4,29.64,West,270,0.0,0.0,90,0.00,,,-99.99,VWS V12.07,2013-09-25 14:25:00,
2013-09-25 09:30:00,49.8,47.0,29.64,West,270,0.0,0.0,90,0.00,,,-99.99,VWS V12.07,2013-09-25 14:30:00,
2013-09-25 09:35:00,50.5,47.7,29.64,West,270,0.0,0.0,90,0.00,,,-99.99,VWS V12.07,2013-09-25 14:35:00,
2013-09-25 09:40:00,51.0,48.2,29.64,West,270,0.0,0.0,90,0.00,,,-99.99,VWS V12.07,2013-09-25 14:40:00,
2013-09-25 09:45:00,51.6,48.8,29.64,West,270,0.0,0.0,90,0.00,,,-99.99,VWS V12.07,2013-09-25 14:45:00,
2013-09-25 09:50:00,52.3,49.5,29.64,West,270,0.0,0.0,90,0.00,,,-99.99,VWS V12.07,2013-09-25 14:50:00,
2013-09-25 09:55:00,52.5,49.7,29.64,West,270,0.0,0.0,90,0.00,,,-99.99,VWS V12.07,2013-09-25 14:55:00,
2013-09-25 10:00:00,53.2,50.3,29.64,West,270,0.0,0.0,90,0.00,,,-99.99,VWS V12.07,2013-09-25 15:00:00,
2013-09-25 10:05:00,53.7,50.8,29.64,West,270,0.0,0.0,90,0.00,,,-99.99,VWS V12.07,2013-09-25 15:05:00,
2013-09-25 10:10:00,54.1,51.2,29.64,West,270,0.0,0.0,90,0.00,,,-99.99,VWS V12.07,2013-09-25 15:10:00,
2013-09-25 10:15:00,54.5,51.6,29.64,West,270,0.0,0.0,90,0.00,,,-99.99,VWS V12.07,2013-09-25 15:15:00,
2013-09-25 10:20:00,55.2,52.3,29.64,West,270,0.0,0.0,90,0.00,,,-99.99,VWS V12.07,2013-09-25 15:20:00,
2013-09-25 10:25:00,55.5,52.3,29.64,West,270,0.0,0.0,89,0.00,,,-99.99,VWS V12.07,2013-09-25 15:25:00,
2013-09-25 10:30:00,55.9,52.4,29.64,West,270,0.0,0.0,88,0.00,,,-99.99,VWS V12.07,2013-09-25 15:30:00,
2013-09-25 10:35:00,56.3,52.5,29.64,West,270,0.0,0.0,87,0.00,,,-99.99,VWS V12.07,2013-09-25 15:35:00,
2013-09-25 10:40:00,56.4,52.6,29.63,West,270,0.0,0.0,87,0.00,,,-99.99,VWS V12.07,2013-09-25 15:40:00,
2013-09-25 10:45:00,57.0,53.2,29.63,West,270,0.0,0.0,87,0.00,,,-99.99,VWS V12.07,2013-09-25 15:45:00,
2013-09-25 10:50:00,57.3,53.2,29.63,West,270,0.0,0.0,86,0.00,,,-99.99,VWS V12.07,2013-09-25 15:50:00,
2013-09-25 10:55:00,57.5,53.3,29.63,West,270,0.0,0.0,86,0.00,,,-99.99,VWS V12.07,2013-09-25 15:55:00,
2013-09-25 11:00:00,57.7,53.2,29.63,WNW,292,0.0,0.0,85,0.00,,,-99.99,VWS V12.07,2013-09-25 16:00:00,
2013-09-25 11:05:00,57.9,53.4,29.63,North,0,0.0,0.0,85,0.00,,,-99.99,VWS V12.07,2013-09-25 16:05:00,
2013-09-25 11:10:00,58.2,53.4,29.63,North,0,0.0,0.0,84,0.00,,,-99.99,VWS V12.07,2013-09-25 16:10:00,
2013-09-25 11:15:00,58.6,53.8,29.63,North,0,0.0,0.0,84,0.00,,,-99.99,VWS V12.07,2013-09-25 16:15:00,
2013-09-25 11:20:00,58.8,53.7,29.63,North,0,0.0,0.0,83,0.00,,,-99.99,VWS V12.07,2013-09-25 16:20:00,
2013-09-25 11:25:00,59.1,54.0,29.63,North,0,0.0,0.0,83,0.00,,,-99.99,VWS V12.07,2013-09-25 16:25:00,
2013-09-25 11:30:00,59.5,54.0,29.63,North,0,0.0,0.0,82,0.00,,,-99.99,VWS V12.07,2013-09-25 16:30:00,
2013-09-25 11:35:00,59.7,53.9,29.63,NE,45,0.0,0.8,81,0.00,,,-99.99,VWS V12.07,2013-09-25 16:35:00,
2013-09-25 11:40:00,59.9,53.7,29.63,NE,45,0.0,0.8,80,0.00,,,-99.99,VWS V12.07,2013-09-25 16:40:00,
2013-09-25 11:45:00,59.9,53.7,29.63,NE,45,0.0,0.8,80,0.00,,,-99.99,VWS V12.07,2013-09-25 16:45:00,
2013-09-25 11:50:00,60.2,54.0,29.63,NE,45,0.0,0.0,80,0.00,,,-99.99,VWS V12.07,2013-09-25 16:50:00,
2013-09-25 11:55:00,60.4,54.2,29.63,NE,45,0.0,0.0,80,0.00,,,-99.99,VWS V12.07,2013-09-25 16:55:00,
2013-09-25 12:00:00,60.6,54.4,29.63,NE,45,0.0,0.0,80,0.00,,,-99.99,VWS V12.07,2013-09-25 17:00:00,
2013-09-25 12:05:00,60.9,54.3,29.63,NE,45,0.0,0.0,79,0.00,,,-99.99,VWS V12.07,2013-09-25 17:05:00,
2013-09-25 12:10:00,61.3,54.4,29.63,NE,45,0.0,0.0,78,0.00,,,-99.99,VWS V12.07,2013-09-25 17:10:00,
2013-09-25 12:15:00,61.5,54.6,29.62,NE,45,0.0,0.0,78,0.00,,,-99.99,VWS V12.07,2013-09-25 17:15:00,
2013-09-25 12:20:00,61.7,54.8,29.62,NE,45,0.0,0.0,78,0.00,,,-99.99,VWS V12.07,2013-09-25 17:20:00,
2013-09-25 12:25:00,61.8,54.5,29.62,NE,45,0.0,0.0,77,0.00,,,-99.99,VWS V12.07,2013-09-25 17:25:00,
2013-09-25 12:30:00,62.2,54.9,29.62,NE,45,0.0,0.0,77,0.00,,,-99.99,VWS V12.07,2013-09-25 17:30:00,
2013-09-25 12:35:00,62.7,55.0,29.62,NE,45,0.0,0.0,76,0.00,,,-99.99,VWS V12.07,2013-09-25 17:35:00,
2013-09-25 12:40:00,62.9,54.9,29.62,NE,45,0.0,0.0,75,0.00,,,-99.99,VWS V12.07,2013-09-25 17:40:00,
2013-09-25 12:45:00,63.1,55.1,29.62,NE,45,0.0,0.0,75,0.00,,,-99.99,VWS V12.07,2013-09-25 17:45:00,
2013-09-25 12:50:00,63.3,55.2,29.62,NE,45,0.0,0.0,75,0.00,,,-99.99,VWS V12.07,2013-09-25 17:50:00,
2013-09-25 12:55:00,63.5,55.1,29.62,NE,45,0.0,0.0,74,0.00,,,-99.99,VWS V12.07,2013-09-25 17:55:00,
2013-09-25 13:00:00,63.6,54.8,29.62,NE,45,0.0,0.0,73,0.00,,,-99.99,VWS V12.07,2013-09-25 18:00:00,
2013-09-25 13:05:00,63.6,54.8,29.61,NE,45,0.0,0.0,73,0.00,,,-99.99,VWS V12.07,2013-09-25 18:05:00,
2013-09-25 13:10:00,64.0,54.8,29.61,NE,45,0.0,0.0,72,0.00,,,-99.99,VWS V12.07,2013-09-25 18:10:00,
2013-09-25 13:15:00,64.0,54.0,29.61,NE,45,0.0,0.0,70,0.00,,,-99.99,VWS V12.07,2013-09-25 18:15:00,
2013-09-25 13:20:00,64.2,54.2,29.61,NE,45,0.0,0.0,70,0.00,,,-99.99,VWS V12.07,2013-09-25 18:20:00,
2013-09-25 13:25:00,64.4,54.4,29.60,NE,45,0.0,0.0,70,0.00,,,-99.99,VWS V12.07,2013-09-25 18:25:00,
2013-09-25 13:30:00,64.5,54.5,29.60,NE,45,0.0,0.0,70,0.00,,,-99.99,VWS V12.07,2013-09-25 18:30:00,
2013-09-25 13:35:00,64.9,54.9,29.60,NE,45,0.0,0.0,70,0.00,,,-99.99,VWS V12.07,2013-09-25 18:35:00,
2013-09-25 13:40:00,65.1,54.7,29.60,NE,45,0.0,0.0,69,0.00,,,-99.99,VWS V12.07,2013-09-25 18:40:00,
2013-09-25 13:45:00,65.4,55.0,29.60,South,180,0.0,0.0,69,0.00,,,-99.99,VWS V12.07,2013-09-25 18:45:00,
2013-09-25 13:50:00,65.6,54.4,29.60,SSE,158,0.0,0.0,67,0.00,,,-99.99,VWS V12.07,2013-09-25 18:50:00,
2013-09-25 13:55:00,65.6,54.4,29.60,SSE,158,0.0,0.0,67,0.00,,,-99.99,VWS V12.07,2013-09-25 18:55:00,
2013-09-25 14:00:00,65.8,54.5,29.60,SSE,158,0.0,0.0,67,0.00,,,-99.99,VWS V12.07,2013-09-25 19:00:00,
2013-09-25 14:05:00,65.8,54.5,29.59,SSE,158,0.0,0.0,67,0.00,,,-99.99,VWS V12.07,2013-09-25 19:05:00,
2013-09-25 14:10:00,66.0,54.7,29.58,SSE,158,0.0,0.0,67,0.00,,,-99.99,VWS V12.07,2013-09-25 19:10:00,
2013-09-25 14:15:00,66.0,54.7,29.59,SSE,158,0.0,0.0,67,0.00,,,-99.99,VWS V12.07,2013-09-25 19:15:00,
2013-09-25 14:20:00,66.0,54.3,29.60,SSE,158,0.0,0.0,66,0.00,,,-99.99,VWS V12.07,2013-09-25 19:20:00,
2013-09-25 14:25:00,66.0,54.3,29.62,SSE,158,0.0,0.0,66,0.00,,,-99.99,VWS V12.07,2013-09-25 19:25:00,
2013-09-25 14:30:00,66.0,53.9,29.61,NE,45,0.0,0.0,65,0.00,,,-99.99,VWS V12.07,2013-09-25 19:30:00,
2013-09-25 14:35:00,66.0,53.9,29.61,NE,45,0.0,0.0,65,0.00,,,-99.99,VWS V12.07,2013-09-25 19:35:00,
2013-09-25 14:40:00,66.3,53.8,29.60,NE,45,0.0,0.0,64,0.00,,,-99.99,VWS V12.07,2013-09-25 19:40:00,
2013-09-25 14:45:00,66.2,53.7,29.60,NE,45,0.0,0.0,64,0.00,,,-99.99,VWS V12.07,2013-09-25 19:45:00,
2013-09-25 14:50:00,66.3,53.8,29.60,NE,45,0.0,0.0,64,0.00,,,-99.99,VWS V12.07,2013-09-25 19:50:00,
2013-09-25 14:55:00,66.5,54.0,29.60,WSW,248,0.0,0.0,64,0.00,,,-99.99,VWS V12.07,2013-09-25 19:55:00,
2013-09-25 15:00:00,66.7,54.2,29.61,WSW,248,0.0,0.0,64,0.00,,,-99.99,VWS V12.07,2013-09-25 20:00:00,
2013-09-25 15:05:00,66.7,54.2,29.60,WSW,248,0.0,0.0,64,0.00,,,-99.99,VWS V12.07,2013-09-25 20:05:00,
2013-09-25 15:10:00,66.9,54.3,29.60,WSW,248,0.0,0.0,64,0.00,,,-99.99,VWS V12.07,2013-09-25 20:10:00,
2013-09-25 15:15:00,66.9,53.9,29.60,WSW,248,0.0,0.0,63,0.00,,,-99.99,VWS V12.07,2013-09-25 20:15:00,
2013-09-25 15:20:00,67.1,54.1,29.60,WSW,248,0.0,0.0,63,0.00,,,-99.99,VWS V12.07,2013-09-25 20:20:00,
2013-09-25 15:25:00,67.1,54.1,29.60,WSW,248,0.0,0.0,63,0.00,,,-99.99,VWS V12.07,2013-09-25 20:25:00,
2013-09-25 15:30:00,67.1,54.1,29.60,WSW,248,0.0,0.0,63,0.00,,,-99.99,VWS V12.07,2013-09-25 20:30:00,
2013-09-25 15:35:00,67.2,54.2,29.60,NNW,338,0.0,0.0,63,0.00,,,-99.99,VWS V12.07,2013-09-25 20:35:00,
2013-09-25 15:40:00,67.2,53.8,29.60,NNW,338,0.0,0.0,62,0.00,,,-99.99,VWS V12.07,2013-09-25 20:40:00,
2013-09-25 15:45:00,67.2,54.2,29.60,NNW,338,0.0,0.0,63,0.00,,,-99.99,VWS V12.07,2013-09-25 20:45:00,
2013-09-25 15:50:00,67.2,53.8,29.60,NNW,338,0.0,0.0,62,0.00,,,-99.99,VWS V12.07,2013-09-25 20:50:00,
2013-09-25 15:55:00,67.2,53.8,29.59,NNW,338,0.0,0.0,62,0.00,,,-99.99,VWS V12.07,2013-09-25 20:55:00,
2013-09-25 16:00:00,67.2,53.8,29.59,NNW,338,0.0,0.0,62,0.00,,,-99.99,VWS V12.07,2013-09-25 21:00:00,
2013-09-25 16:05:00,67.2,53.8,29.59,NNW,338,0.0,0.0,62,0.00,,,-99.99,VWS V12.07,2013-09-25 21:05:00,
2013-09-25 16:10:00,67.2,53.3,29.59,NNW,338,0.0,0.0,61,0.00,,,-99.99,VWS V12.07,2013-09-25 21:10:00,
2013-09-25 16:15:00,67.2,53.3,29.59,NNW,338,0.0,0.0,61,0.00,,,-99.99,VWS V12.07,2013-09-25 21:15:00,
2013-09-25 16:20:00,67.2,53.8,29.59,NNW,338,0.0,0.0,62,0.00,,,-99.99,VWS V12.07,2013-09-25 21:20:00,
2013-09-25 16:25:00,67.6,53.7,29.59,NNW,338,0.0,0.0,61,0.00,,,-99.99,VWS V12.07,2013-09-25 21:25:00,
2013-09-25 16:30:00,67.6,53.7,29.60,NNW,338,0.0,0.0,61,0.00,,,-99.99,VWS V12.07,2013-09-25 21:30:00,
2013-09-25 16:35:00,67.6,53.7,29.60,NNW,338,0.0,0.0,61,0.00,,,-99.99,VWS V12.07,2013-09-25 21:35:00,
2013-09-25 16:40:00,67.6,53.7,29.60,NNW,338,0.0,0.0,61,0.00,,,-99.99,VWS V12.07,2013-09-25 21:40:00,
2013-09-25 16:45:00,67.8,53.9,29.60,NNW,338,0.0,0.0,61,0.00,,,-99.99,VWS V12.07,2013-09-25 21:45:00,
2013-09-25 16:50:00,67.8,53.4,29.60,NNW,338,0.0,0.0,60,0.00,,,-99.99,VWS V12.07,2013-09-25 21:50:00,
2013-09-25 16:55:00,67.8,53.4,29.60,NNW,338,0.0,0.0,60,0.00,,,-99.99,VWS V12.07,2013-09-25 21:55:00,
2013-09-25 17:00:00,67.8,53.4,29.60,NNW,338,0.0,0.0,60,0.00,,,-99.99,VWS V12.07,2013-09-25 22:00:00,
2013-09-25 17:05:00,67.6,53.2,29.60,NNW,338,0.0,0.0,60,0.00,,,-99.99,VWS V12.07,2013-09-25 22:05:00,
2013-09-25 17:10:00,67.6,53.2,29.60,NNW,338,0.0,0.0,60,0.00,,,-99.99,VWS V12.07,2013-09-25 22:10:00,
2013-09-25 17:15:00,67.8,53.4,29.60,NNW,338,0.0,0.0,60,0.00,,,-99.99,VWS V12.07,2013-09-25 22:15:00,
2013-09-25 17:20:00,67.8,53.0,29.60,NNW,338,0.0,0.0,59,0.00,,,-99.99,VWS V12.07,2013-09-25 22:20:00,
2013-09-25 17:25:00,67.8,53.0,29.60,NNW,338,0.0,0.0,59,0.00,,,-99.99,VWS V12.07,2013-09-25 22:25:00,
2013-09-25 17:30:00,67.8,53.0,29.61,NNW,338,0.0,0.0,59,0.00,,,-99.99,VWS V12.07,2013-09-25 22:30:00,
2013-09-25 17:35:00,67.8,53.0,29.61,NNW,338,0.0,0.0,59,0.00,,,-99.99,VWS V12.07,2013-09-25 22:35:00,
2013-09-25 17:40:00,67.8,53.4,29.61,NNW,338,0.0,0.0,60,0.00,,,-99.99,VWS V12.07,2013-09-25 22:40:00,
2013-09-25 17:45:00,67.8,53.4,29.60,NNW,338,0.0,0.0,60,0.00,,,-99.99,VWS V12.07,2013-09-25 22:45:00,
2013-09-25 17:50:00,67.8,53.4,29.60,NNW,338,0.0,0.0,60,0.00,,,-99.99,VWS V12.07,2013-09-25 22:50:00,
2013-09-25 17:55:00,67.8,53.4,29.60,NNW,338,0.0,0.0,60,0.00,,,-99.99,VWS V12.07,2013-09-25 22:55:00,
2013-09-25 18:00:00,67.8,53.4,29.61,NNW,338,0.0,0.0,60,0.00,,,-99.99,VWS V12.07,2013-09-25 23:00:00,
2013-09-25 18:05:00,67.2,52.9,29.61,NNW,338,0.0,0.0,60,0.00,,,-99.99,VWS V12.07,2013-09-25 23:05:00,
2013-09-25 18:10:00,66.9,52.6,29.61,NNW,338,0.0,0.0,60,0.00,,,-99.99,VWS V12.07,2013-09-25 23:10:00,
2013-09-25 18:15:00,66.5,52.7,29.60,NNW,338,0.0,0.0,61,0.00,,,-99.99,VWS V12.07,2013-09-25 23:15:00,
2013-09-25 18:20:00,65.6,51.8,29.60,NNW,338,0.0,0.0,61,0.00,,,-99.99,VWS V12.07,2013-09-25 23:20:00,
2013-09-25 18:25:00,64.9,51.6,29.60,NNW,338,0.0,0.0,62,0.00,,,-99.99,VWS V12.07,2013-09-25 23:25:00,
2013-09-25 18:30:00,64.2,51.4,29.60,NNW,338,0.0,0.0,63,0.00,,,-99.99,VWS V12.07,2013-09-25 23:30:00,
2013-09-25 18:35:00,63.1,50.7,29.60,NNW,338,0.0,0.0,64,0.00,,,-99.99,VWS V12.07,2013-09-25 23:35:00,
2013-09-25 18:40:00,62.4,50.1,29.60,NNW,338,0.0,0.0,64,0.00,,,-99.99,VWS V12.07,2013-09-25 23:40:00,
2013-09-25 18:45:00,61.8,49.9,29.60,NNW,338,0.0,0.0,65,0.00,,,-99.99,VWS V12.07,2013-09-25 23:45:00,
2013-09-25 18:50:00,61.1,49.3,29.59,NNW,338,0.0,0.0,65,0.00,,,-99.99,VWS V12.07,2013-09-25 23:50:00,
2013-09-25 18:55:00,60.6,49.2,29.59,NNW,338,0.0,0.0,66,0.00,,,-99.99,VWS V12.07,2013-09-25 23:55:00,
2013-09-25 19:00:00,60.0,48.6,29.59,NNW,338,0.0,0.0,66,0.00,,,-99.99,VWS V12.07,2013-09-26 00:00:00,
2013-09-25 19:05:00,59.5,48.5,29.60,NNW,338,0.0,0.0,67,0.00,,,-99.99,VWS V12.07,2013-09-26 00:05:00,
2013-09-25 19:10:00,59.1,48.2,29.60,NNW,338,0.0,0.0,67,0.00,,,-99.99,VWS V12.07,2013-09-26 00:10:00,
2013-09-25 19:15:00,58.8,48.3,29.59,NNW,338,0.0,0.0,68,0.00,,,-99.99,VWS V12.07,2013-09-26 00:15:00,
2013-09-25 19:20:00,58.4,47.9,29.59,NNW,338,0.0,0.0,68,0.00,,,-99.99,VWS V12.07,2013-09-26 00:20:00,
2013-09-25 19:25:00,57.9,47.4,29.59,NNW,338,0.0,0.0,68,0.00,,,-99.99,VWS V12.07,2013-09-26 00:25:00,
2013-09-25 19:30:00,57.7,47.6,29.59,NNW,338,0.0,0.0,69,0.00,,,-99.99,VWS V12.07,2013-09-26 00:30:00,
2013-09-25 19:35:00,57.0,46.9,29.60,NNW,338,0.0,0.0,69,0.00,,,-99.99,VWS V12.07,2013-09-26 00:35:00,
2013-09-25 19:40:00,56.8,47.1,29.60,NNW,338,0.0,0.0,70,0.00,,,-99.99,VWS V12.07,2013-09-26 00:40:00,
2013-09-25 19:45:00,56.4,46.8,29.60,NNW,338,0.0,0.0,70,0.00,,,-99.99,VWS V12.07,2013-09-26 00:45:00,
2013-09-25 19:50:00,56.1,46.5,29.60,NNW,338,0.0,0.0,70,0.00,,,-99.99,VWS V12.07,2013-09-26 00:50:00,
2013-09-25 19:55:00,55.9,46.7,29.61,NNW,338,0.0,0.0,71,0.00,,,-99.99,VWS V12.07,2013-09-26 00:55:00,
2013-09-25 20:00:00,55.5,46.3,29.60,NNW,338,0.0,0.0,71,0.00,,,-99.99,VWS V12.07,2013-09-26 01:00:00,
2013-09-25 20:05:00,55.2,46.3,29.61,NNW,338,0.0,0.0,72,0.00,,,-99.99,VWS V12.07,2013-09-26 01:05:00,
2013-09-25 20:10:00,55.0,46.2,29.61,NNW,338,0.0,0.0,72,0.00,,,-99.99,VWS V12.07,2013-09-26 01:10:00,
2013-09-25 20:15:00,54.3,45.5,29.61,NNW,338,0.0,0.0,72,0.00,,,-99.99,VWS V12.07,2013-09-26 01:15:00,
2013-09-25 20:20:00,53.9,45.5,29.61,NNW,338,0.0,0.0,73,0.00,,,-99.99,VWS V12.07,2013-09-26 01:20:00,
2013-09-25 20:25:00,53.7,45.3,29.61,NNW,338,0.0,0.0,73,0.00,,,-99.99,VWS V12.07,2013-09-26 01:25:00,
2013-09-25 20:30:00,53.2,44.8,29.61,NNW,338,0.0,0.0,73,0.00,,,-99.99,VWS V12.07,2013-09-26 01:30:00,
2013-09-25 20:35:00,52.8,44.8,29.61,NNW,338,0.0,0.0,74,0.00,,,-99.99,VWS V12.07,2013-09-26 01:35:00,
2013-09-25 20:40:00,52.5,44.5,29.61,NNW,338,0.0,0.0,74,0.00,,,-99.99,VWS V12.07,2013-09-26 01:40:00,
2013-09-25 20:45:00,52.1,44.4,29.61,NNW,338,0.0,0.0,75,0.00,,,-99.99,VWS V12.07,2013-09-26 01:45:00,
2013-09-25 20:50:00,51.8,44.1,29.61,NNW,338,0.0,0.0,75,0.00,,,-99.99,VWS V12.07,2013-09-26 01:50:00,
2013-09-25 20:55:00,51.6,44.0,29.60,NNW,338,0.0,0.0,75,0.00,,,-99.99,VWS V12.07,2013-09-26 01:55:00,
2013-09-25 21:00:00,51.4,43.8,29.61,NNW,338,0.0,0.0,75,0.00,,,-99.99,VWS V12.07,2013-09-26 02:00:00,
2013-09-25 21:05:00,51.2,43.9,29.60,NNW,338,0.0,0.0,76,0.00,,,-99.99,VWS V12.07,2013-09-26 02:05:00,
2013-09-25 21:10:00,51.0,43.7,29.61,NNW,338,0.0,0.0,76,0.00,,,-99.99,VWS V12.07,2013-09-26 02:10:00,
2013-09-25 21:15:00,51.2,44.2,29.61,NNW,338,0.0,0.0,77,0.00,,,-99.99,VWS V12.07,2013-09-26 02:15:00,
2013-09-25 21:20:00,51.2,44.2,29.61,NNW,338,0.0,0.0,77,0.00,,,-99.99,VWS V12.07,2013-09-26 02:20:00,
2013-09-25 21:25:00,51.2,44.2,29.61,NNW,338,0.0,0.0,77,0.00,,,-99.99,VWS V12.07,2013-09-26 02:25:00,
2013-09-25 21:30:00,51.0,44.0,29.62,NNW,338,0.0,0.0,77,0.00,,,-99.99,VWS V12.07,2013-09-26 02:30:00,
2013-09-25 21:35:00,51.0,44.0,29.62,NNW,338,0.0,0.0,77,0.00,,,-99.99,VWS V12.07,2013-09-26 02:35:00,
2013-09-25 21:40:00,50.9,44.3,29.62,NNW,338,0.0,0.0,78,0.00,,,-99.99,VWS V12.07,2013-09-26 02:40:00,
2013-09-25 21:45:00,50.7,44.1,29.62,NNW,338,0.0,0.0,78,0.00,,,-99.99,VWS V12.07,2013-09-26 02:45:00,
2013-09-25 21:50:00,50.3,43.7,29.62,NNW,338,0.0,0.0,78,0.00,,,-99.99,VWS V12.07,2013-09-26 02:50:00,
2013-09-25 21:55:00,50.1,43.5,29.62,NNW,338,0.0,0.0,78,0.00,,,-99.99,VWS V12.07,2013-09-26 02:55:00,
2013-09-25 22:00:00,50.0,43.4,29.62,NNW,338,0.0,0.0,78,0.00,,,-99.99,VWS V12.07,2013-09-26 03:00:00,
2013-09-25 22:05:00,49.6,43.0,29.62,NNW,338,0.0,0.0,78,0.00,,,-99.99,VWS V12.07,2013-09-26 03:05:00,
2013-09-25 22:10:00,49.6,43.0,29.63,NNW,338,0.0,0.0,78,0.00,,,-99.99,VWS V12.07,2013-09-26 03:10:00,
2013-09-25 22:20:00,48.9,42.7,29.63,NNW,338,0.0,0.0,79,0.00,,,-99.99,VWS V12.07,2013-09-26 03:20:00,
2013-09-25 22:25:00,48.7,42.5,29.63,NNW,338,0.0,0.0,79,0.00,,,-99.99,VWS V12.07,2013-09-26 03:25:00,
2013-09-25 22:30:00,48.3,42.1,29.63,NNW,338,0.0,0.0,79,0.00,,,-99.99,VWS V12.07,2013-09-26 03:30:00,
2013-09-25 22:35:00,48.2,42.0,29.63,NNW,338,0.0,0.0,79,0.00,,,-99.99,VWS V12.07,2013-09-26 03:35:00,
2013-09-25 22:40:00,48.0,41.8,29.64,NNW,338,0.0,0.0,79,0.00,,,-99.99,VWS V12.07,2013-09-26 03:40:00,
2013-09-25 22:45:00,47.8,41.9,29.64,NNW,338,0.0,0.0,80,0.00,,,-99.99,VWS V12.07,2013-09-26 03:45:00,
2013-09-25 22:50:00,47.3,41.5,29.64,NNW,338,0.0,0.0,80,0.00,,,-99.99,VWS V12.07,2013-09-26 03:50:00,
2013-09-25 22:55:00,47.1,41.3,29.65,NNW,338,0.0,0.0,80,0.00,,,-99.99,VWS V12.07,2013-09-26 03:55:00,
2013-09-25 23:00:00,47.1,41.3,29.65,NNW,338,0.0,0.0,80,0.00,,,-99.99,VWS V12.07,2013-09-26 04:00:00,
2013-09-25 23:05:00,46.9,41.1,29.65,NNW,338,0.0,0.0,80,0.00,,,-99.99,VWS V12.07,2013-09-26 04:05:00,
2013-09-25 23:10:00,47.1,41.3,29.64,NNW,338,0.0,0.0,80,0.00,,,-99.99,VWS V12.07,2013-09-26 04:10:00,
2013-09-25 23:15:00,47.1,41.6,29.64,NNW,338,0.0,0.0,81,0.00,,,-99.99,VWS V12.07,2013-09-26 04:15:00,
2013-09-25 23:20:00,47.1,41.6,29.64,NNW,338,0.0,0.0,81,0.00,,,-99.99,VWS V12.07,2013-09-26 04:20:00,
2013-09-25 23:25:00,47.3,42.1,29.64,NNW,338,0.0,0.0,82,0.00,,,-99.99,VWS V12.07,2013-09-26 04:25:00,
2013-09-25 23:30:00,47.4,42.2,29.64,NNW,338,0.0,0.0,82,0.00,,,-99.99,VWS V12.07,2013-09-26 04:30:00,
2013-09-25 23:35:00,47.6,42.4,29.63,NNW,338,0.0,0.0,82,0.00,,,-99.99,VWS V12.07,2013-09-26 04:35:00,
2013-09-25 23:40:00,47.8,42.9,29.63,NNW,338,0.0,0.0,83,0.00,,,-99.99,VWS V12.07,2013-09-26 04:40:00,
2013-09-25 23:45:00,47.8,42.9,29.63,NNW,338,0.0,0.0,83,0.00,,,-99.99,VWS V12.07,2013-09-26 04:45:00,
2013-09-25 23:50:00,47.8,42.9,29.63,NNW,338,0.0,0.0,83,0.00,,,-99.99,VWS V12.07,2013-09-26 04:50:00,
2013-09-25 23:55:00,47.8,42.9,29.63,NNW,338,0.0,0.0,83,0.00,,,-99.99,VWS V12.07,2013-09-26 04:55:00,